Tracking 19146 objects as of 23-Apr-2018
HD Live streaming from Space Station
objects crossing your sky now

FLOCK 3P 3

Track FLOCK 3P 3 now!
10-day predictions
FLOCK 3P 3 is classified as:


NORAD ID: 41968
Int'l Code: 2017-008W
Perigee: 494.5 km
Apogee: 506.2 km
Inclination: 97.5 °
Period: 94.5 minutes
Semi major axis: 6871 km
RCS: Unknown
Launch date: February 15, 2017
Source: United States (US)
Launch site: SRIHARIKOTA (SRI)
aabbcc
Your satellite tracking list
Your tracking list is empty




NASA's NSSDC Master Catalog

Two Line Element Set (TLE):
1 41968U 17008W   18112.75515959 +.00001621 +00000-0 +69493-4 0  9998
2 41968 097.4543 177.8781 0008549 173.7574 186.3771 15.24186375065580
Source of the keplerian elements: AFSPC